User: anonymous   Login
Location: Unspecified
(0.0000°N, 0.0000°E)
Time: 22:46:54
(UTC+00:00)
Language:

Kosmos-1610 - Orbit

View from above orbital plane
View from above orbital plane
View from above satellite
View from above satellite

Ground track
Ground track

The orbit data is extracted from the following two-line orbital elements,

1 15398U 84118A   18019.20342295  .00000025  00000-0  98204-5 0  9999
2 15398  82.9473 241.7011 0032929  50.8833  88.3486 13.73699911663505
Epoch (UTC): 19 January 2018 04:52:55
Eccentricity: 0.0032929
inclination: 82.9473°
perigee height: 962 km
apogee height: 1010 km
right ascension of ascending node: 241.7011°
argument of perigee: 50.8833°
revolutions per day: 13.73699911
mean anomaly at epoch: 88.3486°
orbit number at epoch: 66350

The dashed part of the orbit path shows where the satellite is in the earth's shadow,  

DLR